BEIDOU-2 IGSO-1 (C06) 1 36828U 10036A 26233.75814490 -.00000137 00000+0 00000+0 0 9991 2 36828 54.3073 162.3689 0058186 224.3483 321.2966 1.00253816 58750 BEIDOU-2 G4 (C04) 1 37210U 10057A 26237.27247049 -.00000114 00000+0 00000+0 0 9996 2 37210 3.8132 68.4674 0006699 177.6017 345.5914 1.00272363 57980 BEIDOU-2 IGSO-2 (C07) 1 37256U 10068A 26235.78047809 -.00000147 00000+0 00000+0 0 9990 2 37256 47.4250 270.9835 0057892 215.6393 233.6882 1.00260827 57472 BEIDOU-2 IGSO-3 (C08) 1 37384U 11013A 26230.91979428 -.00000155 00000+0 00000+0 0 9993 2 37384 62.4969 39.5609 0036994 183.8957 178.9703 1.00253025 56292 BEIDOU-2 IGSO-4 (C09) 1 37763U 11038A 26236.77947321 -.00000108 00000+0 00000+0 0 9996 2 37763 54.6047 165.0638 0160354 231.1424 312.0561 1.00272093 55337 BEIDOU-2 G5 (C05) 1 38091U 12008A 26237.12921465 .00000054 00000+0 00000+0 0 9999 2 38091 3.7402 69.2112 0006048 254.6856 114.6995 1.00273583 53062 BEIDOU-2 M3 (C11) 1 38250U 12018A 26235.30847259 -.00000048 00000+0 00000+0 0 9997 2 38250 55.6963 302.6095 0022258 272.0179 87.7989 1.86230260 97198 BEIDOU-2 M4 (C12) 1 38251U 12018B 26236.31479942 -.00000038 00000+0 00000+0 0 9999 2 38251 55.5953 301.7839 0013617 271.8662 88.0538 1.86229888 97217 BEIDOU-2 M6 (C14) 1 38775U 12050B 26236.56110351 -.00000007 00000+0 00000+0 0 9995 2 38775 56.6075 60.6359 0011535 4.7398 355.3324 1.86231066 94580 BEIDOU-2 G6 (C02) 1 38953U 12059A 26237.13705976 -.00000179 00000+0 00000+0 0 9999 2 38953 4.5904 72.7464 0007846 329.2850 64.7293 1.00274567 50600 BEIDOU-3S IGSO-1S (C31) 1 40549U 15019A 26236.63725257 -.00000141 00000+0 00000+0 0 9999 2 40549 49.0631 294.6334 0038999 199.8200 162.5655 1.00294452 41760 BEIDOU-3S M2S (C58) 1 40748U 15037A 26237.05297516 -.00000030 00000+0 00000+0 0 9996 2 40748 54.8061 299.6713 0011009 258.2369 101.7193 1.86232423 75401 BEIDOU-3S M1S (C57) 1 40749U 15037B 26236.17819162 -.00000035 00000+0 00000+0 0 9991 2 40749 54.8034 299.6880 0001828 48.1902 311.9017 1.86254961 75393 BEIDOU-3S IGSO-2S (C56) 1 40938U 15053A 26214.59725278 -.00000074 00000+0 00000+0 0 9998 2 40938 49.1518 258.2267 0066355 193.9763 165.8677 1.00249594 39814 BEIDOU-2 IGSO-6 (C13) 1 41434U 16021A 26236.92221383 -.00000124 00000+0 00000+0 0 9991 2 41434 60.3294 37.3596 0060671 227.7969 135.8730 1.00286406 38170 BEIDOU-2 G7 (C03) 1 41586U 16037A 26236.99692001 -.00000356 00000+0 00000+0 0 9999 2 41586 1.8853 69.6423 0005733 357.8455 15.2079 1.00275293 7589 BEIDOU-3 M1 (C19) 1 43001U 17069A 26236.86336668 -.00000004 00000+0 00000+0 0 9999 2 43001 56.7544 60.8247 0007613 325.8977 34.1152 1.86231406 59883 BEIDOU-3 M2 (C20) 1 43002U 17069B 26231.96967190 -.00000047 00000+0 00000+0 0 9993 2 43002 56.7493 61.0212 0006949 2.4145 357.6402 1.86230756 59785 BEIDOU-3 M7 (C27) 1 43107U 18003A 26237.08149631 -.00000032 00000+0 00000+0 0 9993 2 43107 54.2626 299.9084 0003612 104.4708 255.6482 1.86228450 58639 BEIDOU-3 M8 (C28) 1 43108U 18003B 26237.02519413 -.00000032 00000+0 00000+0 0 9997 2 43108 54.2555 299.8914 0003911 259.8176 100.2171 1.86231329 58648 BEIDOU-3 M4 (C22) 1 43207U 18018A 26236.39471310 -.00000007 00000+0 00000+0 0 9997 2 43207 56.7132 60.9017 0006470 40.6786 319.4313 1.86231452 58013 BEIDOU-3 M3 (C21) 1 43208U 18018B 26235.38730883 -.00000015 00000+0 00000+0 0 9998 2 43208 56.7122 60.9386 0005989 349.7066 10.3410 1.86231564 57995 BEIDOU-3 M9 (C29) 1 43245U 18029A 26236.14257491 -.00000032 00000+0 00000+0 0 9994 2 43245 54.1290 297.5674 0001581 220.7942 139.2712 1.86228723 57165 BEIDOU-3 M10 (C30) 1 43246U 18029B 26236.61354361 -.00000029 00000+0 00000+0 0 9997 2 43246 54.1261 297.5773 0002742 24.0684 336.0234 1.86229551 57157 BEIDOU-2 IGSO-7 (C16) 1 43539U 18057A 26236.71204624 -.00000163 00000+0 00000+0 0 9999 2 43539 55.2149 162.4804 0108043 236.8931 302.0539 1.00283489 29812 BEIDOU-3 M5 (C23) 1 43581U 18062A 26234.15259838 .00000001 00000+0 00000+0 0 9995 2 43581 54.0851 180.0624 0004835 303.5919 56.3361 1.86228756 54869 BEIDOU-3 M6 (C24) 1 43582U 18062B 26236.16417321 -.00000009 00000+0 00000+0 0 9991 2 43582 54.0848 179.9835 0006022 23.1593 336.8374 1.86228225 54906 BEIDOU-3 M12 (C26) 1 43602U 18067A 26237.17660222 -.00000009 00000+0 00000+0 0 9991 2 43602 54.1804 178.7015 0008471 33.5255 326.4975 1.86227689 54409 BEIDOU-3 M11 (C25) 1 43603U 18067B 26236.77489039 -.00000010 00000+0 00000+0 0 9994 2 43603 54.1777 178.6786 0005035 20.0690 339.9206 1.86227248 54429 BEIDOU-3 M13 (C32) 1 43622U 18072A 26236.19224292 -.00000009 00000+0 00000+0 0 9993 2 43622 56.6871 60.4173 0004665 333.1947 26.8418 1.86231257 53927 BEIDOU-3 M14 (C33) 1 43623U 18072B 26236.59461755 -.00000007 00000+0 00000+0 0 9993 2 43623 56.6889 60.3988 0004311 22.7118 337.3682 1.86231344 53929 BEIDOU-3 M16 (C35) 1 43647U 18078A 26236.74902300 -.00000028 00000+0 00000+0 0 9991 2 43647 54.0248 297.5775 0006086 34.0977 326.0207 1.86232503 53436 BEIDOU-3 M15 (C34) 1 43648U 18078B 26235.80518722 -.00000034 00000+0 00000+0 0 9996 2 43648 54.0213 297.6108 0002758 46.2100 313.8887 1.86227674 53436 BEIDOU-3 G1 (C59) 1 43683U 18085A 26237.27247049 -.00000112 00000+0 00000+0 0 9994 2 43683 2.5634 95.4326 0006896 14.5515 121.6843 1.00273286 28751 BEIDOU-3 M17 (C36) 1 43706U 18093A 26237.19123264 -.00000007 00000+0 00000+0 0 9995 2 43706 54.1684 179.9568 0009160 299.4669 161.2695 1.86228458 52827 BEIDOU-3 M18 (C37) 1 43707U 18093B 26236.90487933 -.00000008 00000+0 00000+0 0 9991 2 43707 54.1694 179.9585 0007642 333.0040 26.9249 1.86226930 52813 BEIDOU-3 IGSO-1 (C38) 1 44204U 19023A 26236.85574021 -.00000181 00000+0 00000+0 0 9999 2 44204 58.7943 36.9467 0027050 222.5728 141.0258 1.00272175 7901 BEIDOU-2 G8 (C01) 1 44231U 19027A 26237.21744170 -.00000251 00000+0 00000+0 0 9996 2 44231 1.8273 74.3983 0009000 281.4450 200.4105 1.00268922 26778 BEIDOU-3 IGSO-2 (C39) 1 44337U 19035A 26234.72561712 -.00000165 00000+0 00000+0 0 9998 2 44337 55.2512 158.2792 0038881 211.6656 341.8916 1.00280313 26336 BEIDOU-3 M24 (C46) 1 44542U 19061A 26236.97257808 -.00000007 00000+0 00000+0 0 9997 2 44542 54.3959 180.4090 0009075 7.2849 352.6965 1.86229461 47072 BEIDOU-3 M23 (C45) 1 44543U 19061B 26237.24184972 -.00000007 00000+0 00000+0 0 9990 2 44543 54.3947 180.3686 0006015 354.4522 97.2175 1.86227521 47087 BEIDOU-3 IGSO-3 (C40) 1 44709U 19073A 26236.52133083 -.00000136 00000+0 00000+0 0 9997 2 44709 54.6843 280.1536 0046912 197.4678 162.4913 1.00269787 25143 BEIDOU-3 M22 (C44) 1 44793U 19078A 26236.27648214 -.00000031 00000+0 00000+0 0 9998 2 44793 53.8705 297.4274 0005066 46.0884 314.0310 1.86227578 45916 BEIDOU-3 M21 (C43) 1 44794U 19078B 26235.34230932 -.00000037 00000+0 00000+0 0 9996 2 44794 53.8449 297.4202 0002887 39.0074 321.0876 1.86227958 45900 BEIDOU-3 M19 (C41) 1 44864U 19090A 26233.16841847 -.00000037 00000+0 00000+0 0 9999 2 44864 56.6183 60.6444 0015886 294.2140 246.2374 1.86231748 45446 BEIDOU-3 M20 (C42) 1 44865U 19090B 26237.00592476 -.00000005 00000+0 00000+0 0 9993 2 44865 56.6238 60.5530 0013191 309.9948 12.8832 1.86231849 45493 BEIDOU-3 G2 (C60) 1 45344U 20017A 26237.13320133 -.00000142 00000+0 00000+0 0 9992 2 45344 2.5424 48.1023 0002309 97.5608 315.7419 1.00272928 23956 BEIDOU-3 G3 (C61) 1 45807U 20040A 26237.06816032 -.00000356 00000+0 00000+0 0 9999 2 45807 2.6114 67.4500 0002022 299.0363 101.8919 1.00267857 22762 BEIDOU-3 G4 (C62) 1 56564U 23066A 26237.00272670 -.00000284 00000+0 00000+0 0 9990 2 56564 0.4410 350.7066 0005532 189.7208 293.7960 1.00267496 12086 BEIDOU-3 M28 (C50) 1 58654U 23207A 26234.88208252 -.00000023 00000+0 00000+0 0 9998 2 58654 55.8149 60.0553 0001284 32.5505 327.5149 1.86229865 18081 BEIDOU-3 M26 (C48) 1 58655U 23207B 26236.82742243 -.00000009 00000+0 00000+0 0 9992 2 58655 55.8188 59.9766 0000717 284.8778 75.1747 1.86229775 18105 BEIDOU-3 M25 (C47) 1 61186U 24168B 26237.24530524 -.00000031 00000+0 00000+0 0 9991 2 61186 54.4086 299.8385 0004240 287.5536 110.2992 1.86230375 13071 BEIDOU-3 M27 (C49) 1 61187U 24168C 26235.49701302 -.00000042 00000+0 00000+0 0 9993 2 61187 54.4054 299.8820 0000684 339.0346 101.7223 1.86230476 10511